﻿測定場所 (Monitoring sites),日付 (Measurement date),時間 (Measurement time),線量率 最大値 (max) μGy/h,線量率 最小値 (min) μGy/h,線量率 平均値 (average) μGy/h,
足立 (Adachi),2013-01-20,23:01～24:00,0.0571,0.0478,0.0522,
足立 (Adachi),2013-01-20,22:01～23:00,0.0564,0.0491,0.0526,
足立 (Adachi),2013-01-20,21:01～22:00,0.0562,0.0485,0.0524,
足立 (Adachi),2013-01-20,20:01～21:00,0.0563,0.0492,0.0527,
足立 (Adachi),2013-01-20,19:01～20:00,0.0560,0.0488,0.0525,
足立 (Adachi),2013-01-20,18:01～19:00,0.0555,0.0492,0.0523,
足立 (Adachi),2013-01-20,17:01～18:00,0.0565,0.0490,0.0523,
足立 (Adachi),2013-01-20,16:01～17:00,0.0555,0.0497,0.0525,
足立 (Adachi),2013-01-20,15:01～16:00,0.0573,0.0481,0.0522,
足立 (Adachi),2013-01-20,14:01～15:00,0.0552,0.0486,0.0520,
足立 (Adachi),2013-01-20,13:01～14:00,0.0541,0.0480,0.0511,
足立 (Adachi),2013-01-20,12:01～13:00,0.0538,0.0481,0.0507,
足立 (Adachi),2013-01-20,11:01～12:00,0.0539,0.0465,0.0500,
足立 (Adachi),2013-01-20,10:01～11:00,0.0526,0.0470,0.0493,
足立 (Adachi),2013-01-20,09:01～10:00,0.0520,0.0457,0.0492,
足立 (Adachi),2013-01-20,08:01～09:00,0.0522,0.0459,0.0492,
足立 (Adachi),2013-01-20,07:01～08:00,0.0518,0.0469,0.0490,
足立 (Adachi),2013-01-20,06:01～07:00,0.0550,0.0461,0.0492,
足立 (Adachi),2013-01-20,05:01～06:00,0.0520,0.0463,0.0493,
足立 (Adachi),2013-01-20,04:01～05:00,0.0522,0.0461,0.0493,
足立 (Adachi),2013-01-20,03:01～04:00,0.0528,0.0460,0.0491,
足立 (Adachi),2013-01-20,02:01～03:00,0.0534,0.0458,0.0489,
足立 (Adachi),2013-01-20,01:01～02:00,0.0511,0.0446,0.0488,
足立 (Adachi),2013-01-20,00:01～01:00,0.0530,0.0449,0.0490,
足立 (Adachi),2013-01-19,23:01～24:00,0.0520,0.0463,0.0489,
足立 (Adachi),2013-01-19,22:01～23:00,0.0540,0.0468,0.0494,
足立 (Adachi),2013-01-19,21:01～22:00,0.0526,0.0458,0.0491,
足立 (Adachi),2013-01-19,20:01～21:00,0.0512,0.0463,0.0488,
足立 (Adachi),2013-01-19,19:01～20:00,0.0522,0.0453,0.0488,
足立 (Adachi),2013-01-19,18:01～19:00,0.0510,0.0458,0.0482,
足立 (Adachi),2013-01-19,17:01～18:00,0.0516,0.0444,0.0480,
足立 (Adachi),2013-01-19,16:01～17:00,0.0512,0.0451,0.0479,
足立 (Adachi),2013-01-19,15:01～16:00,0.0502,0.0444,0.0478,
足立 (Adachi),2013-01-19,14:01～15:00,0.0501,0.0444,0.0475,
足立 (Adachi),2013-01-19,13:01～14:00,0.0504,0.0442,0.0470,
足立 (Adachi),2013-01-19,12:01～13:00,0.0489,0.0430,0.0460,
足立 (Adachi),2013-01-19,11:01～12:00,0.0493,0.0427,0.0462,
足立 (Adachi),2013-01-19,10:01～11:00,0.0493,0.0436,0.0463,
足立 (Adachi),2013-01-19,09:01～10:00,0.0488,0.0435,0.0464,
足立 (Adachi),2013-01-19,08:01～09:00,0.0495,0.0430,0.0460,
足立 (Adachi),2013-01-19,07:01～08:00,0.0481,0.0432,0.0456,
足立 (Adachi),2013-01-19,06:01～07:00,0.0487,0.0423,0.0451,
足立 (Adachi),2013-01-19,05:01～06:00,0.0495,0.0430,0.0459,
足立 (Adachi),2013-01-19,04:01～05:00,0.0496,0.0431,0.0461,
足立 (Adachi),2013-01-19,03:01～04:00,0.0484,0.0431,0.0457,
足立 (Adachi),2013-01-19,02:01～03:00,0.0485,0.0428,0.0459,
足立 (Adachi),2013-01-19,01:01～02:00,0.0493,0.0429,0.0458,
足立 (Adachi),2013-01-19,00:01～01:00,0.0481,0.0423,0.0460,
足立 (Adachi),2013-01-18,23:01～24:00,0.0496,0.0439,0.0463,
足立 (Adachi),2013-01-18,22:01～23:00,0.0478,0.0420,0.0456,
足立 (Adachi),2013-01-18,21:01～22:00,0.0494,0.0425,0.0460,
足立 (Adachi),2013-01-18,20:01～21:00,0.0491,0.0428,0.0457,
足立 (Adachi),2013-01-18,19:01～20:00,0.0481,0.0429,0.0454,
足立 (Adachi),2013-01-18,18:01～19:00,0.0477,0.0429,0.0452,
足立 (Adachi),2013-01-18,17:01～18:00,0.0473,0.0414,0.0449,
足立 (Adachi),2013-01-18,16:01～17:00,0.0495,0.0427,0.0454,
足立 (Adachi),2013-01-18,15:01～16:00,0.0475,0.0419,0.0450,
足立 (Adachi),2013-01-18,14:01～15:00,0.0467,0.0421,0.0443,
足立 (Adachi),2013-01-18,13:01～14:00,0.0476,0.0410,0.0439,
足立 (Adachi),2013-01-18,12:01～13:00,0.0466,0.0411,0.0437,
足立 (Adachi),2013-01-18,11:01～12:00,0.0469,0.0405,0.0435,
足立 (Adachi),2013-01-18,10:01～11:00,0.0470,0.0405,0.0440,
足立 (Adachi),2013-01-18,09:01～10:00,0.0464,0.0408,0.0434,
足立 (Adachi),2013-01-18,08:01～09:00,0.0455,0.0384,0.0422,
足立 (Adachi),2013-01-18,07:01～08:00,0.0436,0.0381,0.0411,
足立 (Adachi),2013-01-18,06:01～07:00,0.0457,0.0380,0.0420,
足立 (Adachi),2013-01-18,05:01～06:00,0.0473,0.0404,0.0438,
足立 (Adachi),2013-01-18,04:01～05:00,0.0480,0.0408,0.0442,
足立 (Adachi),2013-01-18,03:01～04:00,0.0459,0.0414,0.0440,
足立 (Adachi),2013-01-18,02:01～03:00,0.0467,0.0417,0.0439,
足立 (Adachi),2013-01-18,01:01～02:00,0.0480,0.0411,0.0440,
足立 (Adachi),2013-01-18,00:01～01:00,0.0473,0.0409,0.0441,
足立 (Adachi),2013-01-17,23:01～24:00,0.0478,0.0403,0.0443,
足立 (Adachi),2013-01-17,22:01～23:00,0.0473,0.0419,0.0441,
足立 (Adachi),2013-01-17,21:01～22:00,0.0480,0.0403,0.0442,
足立 (Adachi),2013-01-17,20:01～21:00,0.0474,0.0416,0.0442,
足立 (Adachi),2013-01-17,19:01～20:00,0.0471,0.0418,0.0442,
足立 (Adachi),2013-01-17,18:01～19:00,0.0470,0.0401,0.0437,
足立 (Adachi),2013-01-17,17:01～18:00,0.0463,0.0410,0.0435,
足立 (Adachi),2013-01-17,16:01～17:00,0.0467,0.0399,0.0430,
足立 (Adachi),2013-01-17,15:01～16:00,0.0452,0.0403,0.0428,
足立 (Adachi),2013-01-17,14:01～15:00,0.0460,0.0399,0.0432,
足立 (Adachi),2013-01-17,13:01～14:00,0.0468,0.0402,0.0423,
足立 (Adachi),2013-01-17,12:01～13:00,0.0445,0.0396,0.0418,
足立 (Adachi),2013-01-17,11:01～12:00,0.0456,0.0384,0.0418,
足立 (Adachi),2013-01-17,10:01～11:00,0.0463,0.0403,0.0421,
足立 (Adachi),2013-01-17,09:01～10:00,0.0457,0.0403,0.0425,
足立 (Adachi),2013-01-17,08:01～09:00,0.0464,0.0370,0.0421,
足立 (Adachi),2013-01-17,07:01～08:00,0.0467,0.0390,0.0421,
足立 (Adachi),2013-01-17,06:01～07:00,0.0465,0.0388,0.0429,
足立 (Adachi),2013-01-17,05:01～06:00,0.0452,0.0408,0.0431,
足立 (Adachi),2013-01-17,04:01～05:00,0.0452,0.0391,0.0431,
足立 (Adachi),2013-01-17,03:01～04:00,0.0455,0.0403,0.0429,
足立 (Adachi),2013-01-17,02:01～03:00,0.0453,0.0405,0.0426,
足立 (Adachi),2013-01-17,01:01～02:00,0.0465,0.0398,0.0429,
足立 (Adachi),2013-01-17,00:01～01:00,0.0457,0.0391,0.0424,
足立 (Adachi),2013-01-16,23:01～24:00,0.0454,0.0390,0.0422,
足立 (Adachi),2013-01-16,22:01～23:00,0.0456,0.0385,0.0421,
足立 (Adachi),2013-01-16,21:01～22:00,0.0444,0.0385,0.0418,
足立 (Adachi),2013-01-16,20:01～21:00,0.0450,0.0389,0.0416,
足立 (Adachi),2013-01-16,19:01～20:00,0.0451,0.0382,0.0411,
足立 (Adachi),2013-01-16,18:01～19:00,0.0508,0.0373,0.0412,
足立 (Adachi),2013-01-16,17:01～18:00,0.0460,0.0379,0.0409,
足立 (Adachi),2013-01-16,16:01～17:00,0.0441,0.0377,0.0406,
足立 (Adachi),2013-01-16,15:01～16:00,0.0427,0.0382,0.0406,
足立 (Adachi),2013-01-16,14:01～15:00,0.0436,0.0368,0.0406,
足立 (Adachi),2013-01-16,13:01～14:00,0.0442,0.0367,0.0403,
足立 (Adachi),2013-01-16,12:01～13:00,0.0423,0.0368,0.0397,
足立 (Adachi),2013-01-16,11:01～12:00,0.0427,0.0361,0.0402,
足立 (Adachi),2013-01-16,10:01～11:00,0.0438,0.0379,0.0405,
足立 (Adachi),2013-01-16,09:01～10:00,0.0441,0.0368,0.0400,
足立 (Adachi),2013-01-16,08:01～09:00,0.0421,0.0360,0.0391,
足立 (Adachi),2013-01-16,07:01～08:00,0.0405,0.0347,0.0375,
足立 (Adachi),2013-01-16,06:01～07:00,0.0384,0.0348,0.0364,
足立 (Adachi),2013-01-16,05:01～06:00,0.0417,0.0353,0.0383,
足立 (Adachi),2013-01-16,04:01～05:00,0.0424,0.0364,0.0386,
足立 (Adachi),2013-01-16,03:01～04:00,0.0411,0.0365,0.0386,
足立 (Adachi),2013-01-16,02:01～03:00,0.0415,0.0367,0.0388,
足立 (Adachi),2013-01-16,01:01～02:00,0.0418,0.0363,0.0386,
足立 (Adachi),2013-01-16,00:01～01:00,0.0421,0.0366,0.0386,
足立 (Adachi),2013-01-15,23:01～24:00,0.0416,0.0364,0.0386,
足立 (Adachi),2013-01-15,22:01～23:00,0.0421,0.0360,0.0382,
足立 (Adachi),2013-01-15,21:01～22:00,0.0408,0.0362,0.0383,
足立 (Adachi),2013-01-15,20:01～21:00,0.0412,0.0354,0.0383,
足立 (Adachi),2013-01-15,19:01～20:00,0.0410,0.0361,0.0378,
足立 (Adachi),2013-01-15,18:01～19:00,0.0398,0.0358,0.0376,
足立 (Adachi),2013-01-15,17:01～18:00,0.0411,0.0355,0.0376,
足立 (Adachi),2013-01-15,16:01～17:00,0.0401,0.0358,0.0374,
足立 (Adachi),2013-01-15,15:01～16:00,0.0413,0.0347,0.0374,
足立 (Adachi),2013-01-15,14:01～15:00,0.0393,0.0346,0.0370,
足立 (Adachi),2013-01-15,13:01～14:00,0.0391,0.0347,0.0367,
足立 (Adachi),2013-01-15,12:01～13:00,0.0393,0.0346,0.0363,
足立 (Adachi),2013-01-15,11:01～12:00,0.0371,0.0339,0.0356,
足立 (Adachi),2013-01-15,10:01～11:00,0.0365,0.0334,0.0350,
足立 (Adachi),2013-01-15,09:01～10:00,0.0362,0.0330,0.0347,
足立 (Adachi),2013-01-15,08:01～09:00,0.0369,0.0324,0.0346,
足立 (Adachi),2013-01-15,07:01～08:00,0.0363,0.0320,0.0340,
足立 (Adachi),2013-01-15,06:01～07:00,0.0365,0.0317,0.0338,
足立 (Adachi),2013-01-15,05:01～06:00,0.0355,0.0321,0.0336,
足立 (Adachi),2013-01-15,04:01～05:00,0.0353,0.0319,0.0337,
足立 (Adachi),2013-01-15,03:01～04:00,0.0354,0.0315,0.0337,
足立 (Adachi),2013-01-15,02:01～03:00,0.0350,0.0318,0.0333,
足立 (Adachi),2013-01-15,01:01～02:00,0.0352,0.0313,0.0331,
足立 (Adachi),2013-01-15,00:01～01:00,0.0348,0.0317,0.0330,
足立 (Adachi),2013-01-14,23:01～24:00,0.0345,0.0317,0.0330,
足立 (Adachi),2013-01-14,22:01～23:00,0.0345,0.0309,0.0328,
足立 (Adachi),2013-01-14,21:01～22:00,0.0365,0.0319,0.0339,
足立 (Adachi),2013-01-14,20:01～21:00,0.0440,0.0347,0.0381,
足立 (Adachi),2013-01-14,19:01～20:00,0.0484,0.0412,0.0450,
足立 (Adachi),2013-01-14,18:01～19:00,0.0476,0.0407,0.0444,
足立 (Adachi),2013-01-14,17:01～18:00,0.0491,0.0424,0.0460,
足立 (Adachi),2013-01-14,16:01～17:00,0.0568,0.0456,0.0510,
足立 (Adachi),2013-01-14,15:01～16:00,0.0622,0.0522,0.0563,
足立 (Adachi),2013-01-14,14:01～15:00,0.0692,0.0565,0.0630,
足立 (Adachi),2013-01-14,13:01～14:00,0.0736,0.0635,0.0689,
足立 (Adachi),2013-01-14,12:01～13:00,0.0845,0.0682,0.0738,
足立 (Adachi),2013-01-14,11:01～12:00,0.0866,0.0736,0.0801,
足立 (Adachi),2013-01-14,10:01～11:00,0.0885,0.0751,0.0816,
足立 (Adachi),2013-01-14,09:01～10:00,0.0890,0.0742,0.0820,
足立 (Adachi),2013-01-14,08:01～09:00,0.0931,0.0777,0.0829,
足立 (Adachi),2013-01-14,07:01～08:00,0.0881,0.0774,0.0822,
足立 (Adachi),2013-01-14,06:01～07:00,0.0883,0.0716,0.0776,
足立 (Adachi),2013-01-14,05:01～06:00,0.0781,0.0706,0.0737,
足立 (Adachi),2013-01-14,04:01～05:00,0.0834,0.0664,0.0729,
足立 (Adachi),2013-01-14,03:01～04:00,0.0665,0.0549,0.0600,
足立 (Adachi),2013-01-14,02:01～03:00,0.0601,0.0534,0.0571,
足立 (Adachi),2013-01-14,01:01～02:00,0.0610,0.0533,0.0574,
足立 (Adachi),2013-01-14,00:01～01:00,0.0607,0.0540,0.0575,
